Regional Weather Roundup
Issued by NWS

Home | Current Version | Previous Version | Graphics & Text | Print | Product List | Glossary Off
Versions: 1 2 3 4 5 6 7 8 9 10 11 12 13 14 15 16 17 18 19 20 21 22 23 24 25 26 27 28 29 30 31 32 33 34 35 36 37 38 39 40 41 42 43 44 45 46 47 48 49 50

000
ASUS43 KMKX 101200
RWRWI

WISCONSIN REGIONAL WEATHER ROUNDUP
NATIONAL WEATHER SERVICE MILWAUKEE/SULLIVAN WI
600 AM CST SAT DEC 10 2016

NOTE: "FAIR" INDICATES FEW OR NO CLOUDS BELOW 12,000 FEET WITH NO
SIGNIFICANT WEATHER AND/OR OBSTRUCTIONS TO VISIBILITY.

WIZ001-002-006>008-014>016-023>028-101300-
NORTHWEST WISCONSIN

CITY           SKY/WX    TMP DP  RH WIND       PRES   REMARKS
SUPERIOR ARPT  CLOUDY     6  -3  63 NW10      30.49S WCI  -8
ASHLAND        LGT SNOW   7   3  84 W5        30.47R FOG     WCI  -2
6HR MIN TEMP:   5; 6HR MAX TEMP:  10; 6HR PCP: TRACE;

HAYWARD        CLOUDY     8  -2  63 CALM      30.43R
6HR MIN TEMP:   8; 6HR MAX TEMP:  10; 6HR PCP: TRACE;

SIREN          CLOUDY    10   3  74 NW7       30.45S WCI  -1
CUMBERLAND     CLOUDY     9   3  78 W7        30.42S WCI  -3
RICE LAKE      CLOUDY    10   5  77 W7        30.45S WCI   0
6HR MIN TEMP:  10; 6HR MAX TEMP:  12;

CHETEK         LGT SNOW  10   5  80 W3        30.45S
LADYSMITH      CLOUDY    10   2  69 N5        30.44S WCI   2
6HR MIN TEMP:  10; 6HR MAX TEMP:  13;

EAU CLAIRE     NOT AVBL
MENOMONIE      CLOUDY    11   3  71 W6        30.47R WCI   2
6HR MIN TEMP:  11; 6HR MAX TEMP:  14;

NEW RICHMOND   PTCLDY     4  -1  81 W3        30.47S
OSCEOLA        CLOUDY     5   1  81 W3        30.51S
$$

WIZ003>005-009-010-017-018-101300-
NORTH CENTRAL WISCONSIN

CITY           SKY/WX    TMP DP  RH WIND       PRES   REMARKS
MANITOWISH WTR CLOUDY     4  -1  79 W6        30.35S WCI  -6
ARBOR VITAE    CLOUDY     9  -1  64 NW6       30.36S WCI  -1
WOODRUFF       CLOUDY     9  -1  64 NW6       30.36S WCI  -1
RHINELANDER    CLOUDY     8  -1  66 W10       30.36S WCI  -6
6HR MIN TEMP:   8; 6HR MAX TEMP:  12;

EAGLE RIVER    CLOUDY     6  -3  65 W7        30.34S WCI  -5
LAND O LAKES   CLOUDY     6   0  75 W7        30.35F WCI  -5
6HR MIN TEMP:   6; 6HR MAX TEMP:   9;

PHILLIPS       CLOUDY     6  -3  67 NW5       30.39R WCI  -3
6HR MIN TEMP:   6; 6HR MAX TEMP:   9;

TOMAHAWK       CLOUDY     8   2  76 NW7       30.38S WCI  -3
MEDFORD        FLURRIES  10   5  80 NW5       30.38R WCI   1
MERRILL        CLOUDY    10   4  75 N6        30.41R WCI   1
6HR MIN TEMP:  10; 6HR MAX TEMP:  14;

$$

WIZ029-030-035-036-043>047-101300-
CENTRAL WISCONSIN

CITY           SKY/WX    TMP DP  RH WIND       PRES   REMARKS
WAUSAU         CLOUDY    11   3  70 W9        30.39S WCI  -2
6HR MIN TEMP:  11; 6HR MAX TEMP:  15; 6HR PCP: TRACE;

MOSINEE        CLOUDY    10   3  72 W9        30.41S WCI  -2
MARSHFIELD     CLOUDY    11   4  73 NW7       30.39F WCI   0
6HR MIN TEMP:  11; 6HR MAX TEMP:  14; 6HR PCP: TRACE;

STEVENS POINT  CLOUDY    12   2  65 NW8       30.42S WCI   0
WAUPACA        MOCLDY    14   9  79 CALM      30.44S
6HR MIN TEMP:  14; 6HR MAX TEMP:  19;

WAUTOMA        PTCLDY    10   7  87 W6        30.46S WCI   0
6HR MIN TEMP:  10; 6HR MAX TEMP:  15; 6HR PCP:  0.06;

WISC RAPIDS    FLURRIES  10   8  92 W7        30.44S WCI  -1
6HR MIN TEMP:  10; 6HR MAX TEMP:  16; 6HR PCP: TRACE;

CAMP DOUGLAS   NOT AVBL
$$

WIZ011>013-019>022-031-037>040-048>050-101300-
NORTHEAST WISCONSIN

CITY           SKY/WX    TMP DP  RH WIND       PRES   REMARKS
ANTIGO         CLOUDY     9   4  79 NW8       30.36S WCI  -3
SHAWANO        CLOUDY    17   7  65 W8        30.43R WCI   7
6HR MIN TEMP:  17; 6HR MAX TEMP:  19;

OCONTO         CLOUDY    17   6  63 W9        30.42S WCI   5
6HR MIN TEMP:  17; 6HR MAX TEMP:  19;

STURGEON BAY   FLURRIES  18   9  68 NW13      30.40S WCI   5
6HR MIN TEMP:  18; 6HR MAX TEMP:  20; 6HR PCP:  0.02;

GREEN BAY      CLOUDY    20   8  60 W10       30.42S WCI   9
6HR MIN TEMP:  19; 6HR MAX TEMP:  20; 6HR PCP: TRACE;

MANITOWOC      NOT AVBL
APPLETON       PTCLDY    12   7  79 W8        30.41S WCI   1
CLINTONVILLE   CLOUDY    18   5  57 NW12      30.43S WCI   5
OSHKOSH        CLEAR     13   7  77 W5        30.44S WCI   5
6HR MIN TEMP:  13; 6HR MAX TEMP:  19;

$$

WIZ032>034-041-042-053>061-101300-
SOUTHWEST WISCONSIN

CITY           SKY/WX    TMP DP  RH WIND       PRES   REMARKS
LA CROSSE      CLEAR     10   5  80 W6        30.50F WCI   0
6HR MIN TEMP:  10; 6HR MAX TEMP:  18;

SPARTA         PTCLDY     8   6  89 W5        30.48S WCI   0
6HR MIN TEMP:   8; 6HR MAX TEMP:  16;

VIROQUA        PTCLDY     7   2  80 W5        30.43R WCI  -1
6HR MIN TEMP:   7; 6HR MAX TEMP:  15;

BOSCOBEL       CLEAR     15   9  76 S3        30.50F
6HR MIN TEMP:  15; 6HR MAX TEMP:  19;

PRAIRIE DU CHI PTCLDY    14  10  83 NW3       30.50F
PLATTEVILLE    MOCLDY    15  14  98 SW5       30.47F WCI   7
$$

WIZ056-057-062-063-064-067-068-101300-
SOUTH CENTRAL WISCONSIN

CITY           SKY/WX    TMP DP  RH WIND       PRES   REMARKS
REEDSBURG      PTCLDY    12   8  87 W6        30.46S WCI   2
6HR MIN TEMP:  12; 6HR MAX TEMP:  16;

BARABOO/DELLS  MOCLDY    12   8  84 CALM      30.45F
LONE ROCK      NOT AVBL
MINERAL POINT  FLURRIES  16  14  93 W3        30.45S
MADISON        FLURRIES  15  11  83 NW3       30.46F
6HR MIN TEMP:  14; 6HR MAX TEMP:  18; 6HR PCP: TRACE;

MIDDLETON      MOCLDY    16  12  86 W6        30.47S WCI   7
6HR MIN TEMP:  15; 6HR MAX TEMP:  19;

WATERTOWN      MOCLDY    14  12  91 SW5       30.46S WCI   6
6HR MIN TEMP:  14; 6HR MAX TEMP:  18;

MONROE         CLOUDY    18  14  86 SW8       30.46S WCI   7
JANESVILLE     CLOUDY    19  14  79 W6        30.48F WCI  11
$$

WIZ051-052-058>065-066-070>072-101300-
SOUTHEAST WISCONSIN

CITY           SKY/WX    TMP DP  RH WIND       PRES   REMARKS
MILWAUKEE      PTCLDY    19  11  70 W7        30.48R WCI  10
6HR MIN TEMP:  19; 6HR MAX TEMP:  20;

WAUKESHA       NOT AVBL
MILWAUKEE/TIMM MOCLDY    18  10  73 W8        30.48R WCI   7
RACINE         CLOUDY    17  11  77 W6        30.49S WCI   9
6HR MIN TEMP:  17; 6HR MAX TEMP:  20;

BURLINGTON     MOCLDY    21  18  86 W6        30.48S WCI  13
KENOSHA        MOCLDY    18  12  77 W8        30.48S WCI   8
6HR MIN TEMP:  17; 6HR MAX TEMP:  19;

FOND DU LAC    CLEAR     14   6  70 W7        30.45S WCI   4
6HR MIN TEMP:  14; 6HR MAX TEMP:  18; 6HR PCP: TRACE;

SHEBOYGAN      CLEAR     13   7  77 W7        30.44S WCI   3
6HR MIN TEMP:  13; 6HR MAX TEMP:  17;

WEST BEND      LGT SNOW  16  14  93 W6        30.44S WCI   7
JUNEAU         PTCLDY    12   8  85 W7        30.47R WCI   1
$$

LSZ147-162-101300-
LAKE SUPERIOR

STATION/POSITION TIME  TEMP    WIND        PRES    WAVE
                       AIR SEA DIR/SP/G            HT/PER
                 (UTC) (F)     (DEG/KT/KT) (MB)    (FT/S)
DEVILS ISLAND    1100   10     300/ 15/ 19 1032.8R
PORT WING        1140    9     320/ 16/ 20 1031.8F
SAXON HARBOR     1140    8     220/  7/ 10 1031.2S
$$

LMZ867-665-643>646-101300-
LAKE MICHIGAN

STATION/POSITION TIME  TEMP    WIND        PRES    WAVE
                       AIR SEA DIR/SP/G            HT/PER
                 (UTC) (F)     (DEG/KT/KT) (MB)    (FT/S)
CHAMBERS ISLAND  1140   17     290/  8/ 15 1028.8S
NORTHPORT PIER   1155   17     280/ 15/ 23 1029.1S
SISTER BAY       1150   17     340/ 23/ 27   N/A
ALGOMA LAKESHORE 1121          280/  8/ 12   N/A
KEWAUNEE LAKESHO 1130   18     350/ 10/ 13 1029.4R
SHEBOYGAN LAKESH 1100   17     260/  8/ 10 1032.1R
PORT WASHINGTON  1130   17     280/  4/  7 1032.5S
KENOSHA   LAKESH 1100   20     270/  6/  9 1031.8
$$

TC  - TEMPERATURE IN CELSIUS
VSB - VISIBILITY IN STATUTE MILES
WCI - WIND CHILL INDEX
HX  - HEAT INDEX





USA.gov is the U.S. government's official web portal to all federal, state and local government web resources and services.